Location: Gad�tanya
(48.0500°N, 20.8500°E)
Time: 11:52:37
(UTC+00:00)

Cosmos 44 - Pass Details

Date: 05 July 2020
Orbit: 586 x 776 km, 65.1° (Epoch: 14 August)

Event Time Altitude Azimuth Distance (km) Brightness Sun altitude
Exits shadow 22:05:19 45° 173° (S) 812 3.2 -18.8°
Maximum altitude 22:06:19 58° 122° (ESE) 698 3.0 -18.8°
Drops below altitude 10° 22:10:39 10° 44° (NE) 1,972 6.1 -18.9°
Sets 22:12:59 0° 41° (NE) 2,906 7.1 -19.0°
